Location: Campestrin
(46.4667°N, 11.7167°E)
Time: 09:13:00
(UTC+00:00)

SJ-6B - Pass Details

Date: 18 April 2021
Orbit: 510 x 580 km, 97.6° (Epoch: 06 May)

Event Time Altitude Azimuth Distance (km) Brightness Sun altitude
Exits shadow 19:36:18 - 191° (S) 2,409 5.9 -14.9°
Reaches altitude 10° 19:38:04 10° 201° (SSW) 1,726 5.2 -15.2°
Maximum altitude 19:41:22 30° 264° (W) 936 4.5 -15.6°
Drops below altitude 10° 19:44:43 10° 327° (NNW) 1,749 6.5 -16.1°
Sets 19:47:01 0° 338° (NNW) 2,648 7.3 -16.4°
